Pickens County Airport, SC

5:43 PM EDT on August 19, 2017 (GMT -0400)
Pickens County

Weather History for KLQK - December, 2013

Change the Weather History Date:

Monday, December 23, 2013

  Actual Average Record
Temperature  
Mean Temperature 52 °F -  
Max Temperature 59 °F 52 °F 85 °F (2015)
Min Temperature 46 °F 33 °F 34 °F (2016)
Degree Days  
Heating Degree Days 12    
Growing Degree Days 2 (Base 50)    
Moisture  
Dew Point 53 °F    
Average Humidity 94    
Maximum Humidity 100    
Minimum Humidity 79    
Precipitation  
Precipitation 0.00 in - - ()
Sea Level Pressure  
Sea Level Pressure 30.08 in    
Wind  
Wind Speed 2 mph (SSW)    
Max Wind Speed 9 mph    
Max Gust Speed -    
Visibility 8 miles    
Events Rain    
Averages and records for this station are not official NWS values.
T = Trace of Precipitation, MM = Missing Value Source: NWS Daily Summary

Daily Weather History Graph

Daily Weather History Graph

Search for Another Location

Airport or City:

Trip Planner

Search our weather history database for the weather conditions in past years. The results will help you decide how hot, cold, wet, or windy it might be!

Date:

Astronomy

Dec. 23, 2013 Rise Set
Actual Time 7:35 AM EST 5:24 PM EST
Civil Twilight 7:07 AM EST 5:52 PM EST
Nautical Twilight 6:35 AM EST 6:24 PM EST
Astronomical Twilight 6:04 AM EST 6:55 PM EST
Moon 11:19 PM EST (12/23) 11:12 AM EST (12/23)
Length of Visible Light 10h 45m
Length of Day
9h 49m
Waning Gibbous, 68% of the Moon is Illuminated
Dec 23
Waning Gibbous
Dec 25
Last Quarter
Jan 1
New
Jan 7
First Quarter
Jan 15
Full

Hourly Weather History & Observations

Time (EST) Temp. Windchill Dew Point Humidity Pressure Visibility Wind Dir Wind Speed Gust Speed Precip Events Conditions
12:15 AM 57.7 °F - 57.7 °F 100% 30.05 in 3.0 mi Calm Calm - N/A Rain Light Rain
12:35 AM 57.7 °F - 57.7 °F 100% 30.05 in 1.2 mi Calm Calm - N/A Rain Rain
12:55 AM 57.6 °F - 57.7 °F 100% 30.05 in 1.0 mi Calm Calm - N/A Rain Rain
1:15 AM 57.6 °F - 57.7 °F 100% 30.04 in 1.2 mi Calm Calm - N/A Rain Rain
1:35 AM 57.6 °F - 57.7 °F 100% 30.04 in 2.5 mi North - - N/A Rain Rain
1:55 AM 57.6 °F - 57.7 °F 100% 30.04 in 2.0 mi Calm Calm - N/A Rain Rain
2:15 AM 57.4 °F - 57.6 °F 100% 30.02 in 1.0 mi Calm Calm - N/A Rain Rain
2:35 AM 57.2 °F - 57.4 °F 100% 30.01 in 1.2 mi Calm Calm - N/A Rain Light Rain
2:55 AM 57.2 °F - 57.2 °F 100% 30.01 in 4.0 mi Calm Calm - N/A Rain Rain
3:15 AM 57.2 °F - 57.2 °F 100% 30.02 in 1.0 mi Calm Calm - N/A   Overcast
3:35 AM 57.0 °F - 57.2 °F 100% 30.03 in 1.8 mi SW 3.5 mph - N/A Rain Light Rain
3:55 AM 56.8 °F - 57.0 °F 100% 30.05 in 7.0 mi SSW 4.6 mph - N/A Rain Light Rain
4:15 AM 57.2 °F - 57.2 °F 100% 30.03 in 10.0 mi SSW 4.6 mph - N/A Rain Light Rain
4:35 AM 57.2 °F - 57.2 °F 100% 30.04 in 10.0 mi SSW 4.6 mph - N/A Rain Light Rain
4:55 AM 57.0 °F - 57.2 °F 100% 30.02 in 10.0 mi Calm Calm - N/A Rain Light Rain
5:15 AM 56.7 °F - 57.0 °F 100% 30.02 in 10.0 mi SSW 3.5 mph - N/A Rain Rain
5:35 AM 56.5 °F - 56.7 °F 100% 30.03 in 10.0 mi West 4.6 mph - N/A Rain Light Rain
5:55 AM 56.3 °F - 56.3 °F 100% 30.03 in 7.0 mi SW 3.5 mph - N/A Rain Rain
6:15 AM - - - N/A% 30.07 in 7.0 mi SW 5.8 mph - N/A Rain Rain
6:35 AM - - - N/A% 30.06 in 7.0 mi WSW 4.6 mph - N/A Rain Rain
6:55 AM - - - N/A% 30.07 in 10.0 mi WSW 3.5 mph - N/A Rain Light Rain
7:15 AM 55.8 °F - 55.9 °F 100% 30.06 in 7.0 mi West 4.6 mph - N/A Rain Rain
7:35 AM 55.4 °F - 55.6 °F 100% 30.06 in 4.0 mi SW 3.5 mph - N/A Rain Rain
7:55 AM 55.4 °F - 55.4 °F 100% 30.06 in 10.0 mi SSW 4.6 mph - N/A Rain Light Rain
8:15 AM 55.4 °F - 55.4 °F 100% 30.06 in 10.0 mi South 6.9 mph - N/A Rain Light Rain
8:35 AM 55.4 °F - 55.4 °F 100% 30.08 in 10.0 mi SW 9.2 mph - N/A Rain Light Rain
8:55 AM 55.4 °F - 55.4 °F 100% 30.05 in 10.0 mi South 5.8 mph - N/A Rain Light Rain
9:15 AM 55.4 °F - 55.6 °F 100% 30.05 in 10.0 mi South 5.8 mph - N/A   Overcast
9:35 AM 55.6 °F - 55.8 °F 100% 30.09 in 10.0 mi SW 6.9 mph - N/A   Overcast
9:55 AM 55.6 °F - 55.8 °F 100% 30.08 in 10.0 mi Calm Calm - N/A   Overcast
10:15 AM 55.6 °F - 55.8 °F 100% 30.10 in 10.0 mi SW 4.6 mph - N/A   Overcast
10:35 AM 55.8 °F - 55.9 °F 100% 30.08 in 10.0 mi SSW 3.5 mph - N/A   Overcast
10:55 AM 55.6 °F - 55.8 °F 100% 30.09 in 10.0 mi WSW 3.5 mph - N/A   Overcast
11:15 AM 55.8 °F - 56.1 °F 100% 30.09 in 10.0 mi SW 3.5 mph - N/A   Overcast
11:35 AM 56.3 °F - 56.5 °F 100% 30.09 in 10.0 mi SSW 3.5 mph - N/A   Mostly Cloudy
11:55 AM 56.5 °F - 56.5 °F 100% 30.08 in 10.0 mi SW 5.8 mph - N/A   Mostly Cloudy
12:15 PM 56.3 °F - 56.3 °F 100% 30.08 in 10.0 mi Calm Calm - N/A   Overcast
12:35 PM 56.5 °F - 56.7 °F 100% 30.08 in 10.0 mi SW 3.5 mph - N/A   Overcast
12:55 PM 57.2 °F - 57.4 °F 100% 30.08 in 10.0 mi SW 3.5 mph - N/A   Mostly Cloudy
1:15 PM 57.9 °F - 57.7 °F 99% 30.08 in 10.0 mi West 3.5 mph - N/A   Mostly Cloudy
1:35 PM - - - N/A% 30.07 in 10.0 mi Calm Calm - N/A   Unknown
1:55 PM 57.7 °F - 57.4 °F 99% 30.07 in 10.0 mi Calm Calm - N/A   Clear
2:15 PM 58.3 °F - 57.4 °F 97% 30.07 in 10.0 mi Calm Calm - N/A   Scattered Clouds
2:35 PM 58.8 °F - 57.6 °F 96% 30.06 in 10.0 mi North - - N/A   Scattered Clouds
2:55 PM 59.4 °F - 57.2 °F 93% 30.06 in 10.0 mi North - - N/A   Scattered Clouds
3:15 PM 59.7 °F - 57.2 °F 91% 30.07 in 10.0 mi North - - N/A   Clear
3:35 PM 59.9 °F - 56.7 °F 89% 30.07 in 10.0 mi North - - N/A   Clear
3:55 PM 59.9 °F - 55.9 °F 87% 30.07 in 10.0 mi North - - N/A   Clear
4:15 PM 59.7 °F - 55.8 °F 87% 30.08 in 10.0 mi North - - N/A   Clear
4:35 PM 59.7 °F - 55.9 °F 87% 30.08 in 10.0 mi North - - N/A   Clear
4:55 PM 58.6 °F - 56.1 °F 91% 30.09 in 10.0 mi ENE 5.8 mph - N/A   Scattered Clouds
5:15 PM 56.8 °F - 52.9 °F 87% 30.10 in 10.0 mi East 5.8 mph - N/A   Mostly Cloudy
5:35 PM 55.6 °F - 50.0 °F 81% 30.10 in 10.0 mi East 3.5 mph - N/A   Mostly Cloudy
5:55 PM 54.1 °F - 48.7 °F 82% 30.11 in 10.0 mi North - - N/A   Mostly Cloudy
6:15 PM 52.7 °F - 47.3 °F 82% 30.11 in 10.0 mi North - - N/A   Scattered Clouds
6:35 PM 51.3 °F - 46.2 °F 83% 30.11 in 10.0 mi North - - N/A   Clear
6:55 PM 50.2 °F - 46.0 °F 86% 30.11 in 10.0 mi North - - N/A   Clear
7:15 PM 49.3 °F - 45.7 °F 87% 30.12 in 10.0 mi East 3.5 mph - N/A   Scattered Clouds
7:35 PM 48.2 °F - 45.9 °F 92% 30.13 in 10.0 mi East 3.5 mph - N/A   Mostly Cloudy
7:55 PM 48.6 °F - 45.1 °F 88% 30.13 in 10.0 mi ENE 4.6 mph - N/A   Overcast
8:15 PM 48.4 °F - 44.8 °F 87% 30.14 in 10.0 mi ENE 3.5 mph - N/A   Overcast
8:35 PM 48.2 °F - 44.4 °F 87% 30.13 in 10.0 mi Calm Calm - N/A   Overcast
8:55 PM 48.2 °F - 44.2 °F 86% 30.14 in 10.0 mi Calm Calm - N/A   Overcast
9:15 PM 48.2 °F - 44.2 °F 86% 30.15 in 10.0 mi NE 3.5 mph - N/A   Overcast
9:35 PM 48.2 °F - 43.9 °F 85% 30.15 in 10.0 mi NE 4.6 mph - N/A   Overcast
9:55 PM 48.0 °F - 43.0 °F 83% 30.15 in 10.0 mi NE 3.5 mph - N/A   Overcast
10:15 PM 47.7 °F - 42.1 °F 81% 30.15 in 10.0 mi NNE 4.6 mph - N/A   Overcast
10:35 PM 47.3 °F - 41.0 °F 79% 30.16 in 10.0 mi Calm Calm - N/A   Overcast
10:55 PM 46.8 °F - 40.8 °F 80% 30.16 in 10.0 mi NE 4.6 mph - N/A   Overcast
11:15 PM 46.2 °F 44.1 °F 40.3 °F 80% 30.16 in 10.0 mi NNE 4.6 mph - N/A   Overcast
11:35 PM 46.0 °F 44.8 °F 40.5 °F 81% 30.16 in 10.0 mi North 3.5 mph - N/A   Overcast
11:55 PM 46.0 °F - 40.8 °F 82% 30.16 in 10.0 mi Calm Calm - N/A   Overcast